Time,TemperatureF,DewpointF,PressureIn,WindDirection,WindDirectionDegrees,WindSpeedMPH,WindSpeedGustMPH,Humidity,HourlyPrecipIn,Conditions,Clouds,dailyrainin,SoftwareType,DateUTC
2013-11-12 00:02:00,59.0,-99.9,29.98,NE,56,1.0,2.0,-999,-99.99,,,-99.99,,2013-11-12 08:02:00,
2013-11-12 00:22:00,58.0,-99.9,29.99,NE,44,1.0,2.0,-999,-99.99,,,-99.99,,2013-11-12 08:22:00,
2013-11-12 00:30:00,58.0,-99.9,29.99,ENE,69,0.0,3.0,-999,-99.99,,,-99.99,,2013-11-12 08:30:00,
2013-11-12 00:52:00,58.0,-99.9,29.99,ENE,69,0.0,3.0,-999,-99.99,,,-99.99,,2013-11-12 08:52:00,
2013-11-12 01:02:00,58.0,-99.9,29.99,ENE,69,0.0,3.0,-999,-99.99,,,-99.99,,2013-11-12 09:02:00,
2013-11-12 01:12:00,58.0,-99.9,29.99,ENE,69,0.0,3.0,-999,-99.99,,,-99.99,,2013-11-12 09:12:00,
2013-11-12 01:22:00,58.0,-99.9,29.99,ENE,69,0.0,3.0,-999,-99.99,,,-99.99,,2013-11-12 09:22:00,
2013-11-12 08:20:00,57.0,-99.9,30.02,East,91,1.0,3.0,-999,-99.99,,,-99.99,,2013-11-12 16:20:00,
2013-11-12 08:53:00,57.0,-99.9,30.02,East,91,1.0,3.0,-999,-99.99,,,-99.99,,2013-11-12 16:53:00,
2013-11-12 09:02:00,57.0,-99.9,30.02,East,91,1.0,3.0,-999,-99.99,,,-99.99,,2013-11-12 17:02:00,
2013-11-12 09:12:00,57.0,-99.9,30.02,East,91,1.0,3.0,-999,-99.99,,,-99.99,,2013-11-12 17:12:00,
2013-11-12 09:52:00,60.0,-99.9,30.03,SW,231,1.0,3.0,-999,-99.99,,,-99.99,,2013-11-12 17:52:00,
2013-11-12 10:23:00,62.0,-99.9,30.02,WNW,286,0.0,1.0,-999,-99.99,,,-99.99,,2013-11-12 18:23:00,
2013-11-12 10:32:00,62.0,-99.9,30.02,WNW,286,0.0,1.0,-999,-99.99,,,-99.99,,2013-11-12 18:32:00,
2013-11-12 10:52:00,62.0,-99.9,30.00,NNE,13,2.0,4.0,-999,-99.99,,,-99.99,,2013-11-12 18:52:00,
2013-11-12 11:02:00,62.0,-99.9,30.00,NNE,13,2.0,4.0,-999,-99.99,,,-99.99,,2013-11-12 19:02:00,
2013-11-12 11:11:00,62.0,-99.9,30.00,NNE,13,2.0,4.0,-999,-99.99,,,-99.99,,2013-11-12 19:11:00,
2013-11-12 11:52:00,65.0,-99.9,29.97,NNW,346,2.0,5.0,-999,-99.99,,,-99.99,,2013-11-12 19:52:00,
2013-11-12 12:11:00,65.0,-99.9,29.96,West,273,2.0,4.0,-999,-99.99,,,-99.99,,2013-11-12 20:11:00,
2013-11-12 12:22:00,65.0,-99.9,29.96,West,273,2.0,4.0,-999,-99.99,,,-99.99,,2013-11-12 20:22:00,
2013-11-12 12:52:00,67.0,-99.9,29.95,West,280,3.0,5.0,-999,-99.99,,,-99.99,,2013-11-12 20:52:00,
2013-11-12 13:02:00,67.0,-99.9,29.95,West,280,3.0,5.0,-999,-99.99,,,-99.99,,2013-11-12 21:02:00,
2013-11-12 13:22:00,68.0,-99.9,29.93,NNE,18,2.0,4.0,-999,-99.99,,,-99.99,,2013-11-12 21:22:00,
2013-11-12 13:34:00,68.0,-99.9,29.93,NNE,18,2.0,4.0,-999,-99.99,,,-99.99,,2013-11-12 21:34:00,
2013-11-12 14:24:00,70.0,-99.9,29.92,NW,310,1.0,4.0,-999,-99.99,,,-99.99,,2013-11-12 22:24:00,
2013-11-12 14:54:00,70.0,-99.9,29.92,NW,306,1.0,2.0,-999,-99.99,,,-99.99,,2013-11-12 22:54:00,
2013-11-12 15:03:00,70.0,-99.9,29.92,NW,306,1.0,2.0,-999,-99.99,,,-99.99,,2013-11-12 23:03:00,
2013-11-12 15:23:00,71.0,-99.9,29.93,WSW,246,2.0,4.0,-999,-99.99,,,-99.99,,2013-11-12 23:23:00,
2013-11-12 15:54:00,71.0,-99.9,29.93,WNW,288,2.0,4.0,-999,-99.99,,,-99.99,,2013-11-12 23:54:00,
2013-11-12 16:02:00,71.0,-99.9,29.93,WNW,288,2.0,4.0,-999,-99.99,,,-99.99,,2013-11-13 00:02:00,
2013-11-12 16:22:00,71.0,-99.9,29.92,WNW,292,3.0,5.0,-999,-99.99,,,-99.99,,2013-11-13 00:22:00,
2013-11-12 16:52:00,70.0,-99.9,29.94,NW,314,3.0,6.0,-999,-99.99,,,-99.99,,2013-11-13 00:52:00,
2013-11-12 17:02:00,70.0,-99.9,29.94,NW,314,3.0,6.0,-999,-99.99,,,-99.99,,2013-11-13 01:02:00,
2013-11-12 17:22:00,69.0,-99.9,29.91,WNW,301,1.0,3.0,-999,-99.99,,,-99.99,,2013-11-13 01:22:00,
2013-11-12 17:32:00,69.0,-99.9,29.91,WNW,301,1.0,3.0,-999,-99.99,,,-99.99,,2013-11-13 01:32:00,
2013-11-12 17:52:00,68.0,-99.9,29.94,West,278,3.0,5.0,-999,-99.99,,,-99.99,,2013-11-13 01:52:00,
2013-11-12 18:22:00,67.0,-99.9,29.94,West,270,0.0,1.0,-999,-99.99,,,-99.99,,2013-11-13 02:22:00,
2013-11-12 18:53:00,65.0,-99.9,29.94,West,270,0.0,0.0,-999,-99.99,,,-99.99,,2013-11-13 02:53:00,
2013-11-12 19:22:00,64.0,-99.9,29.93,NE,39,1.0,1.0,-999,-99.99,,,-99.99,,2013-11-13 03:22:00,
2013-11-12 19:34:00,64.0,-99.9,29.93,NE,39,1.0,1.0,-999,-99.99,,,-99.99,,2013-11-13 03:34:00,
2013-11-12 19:54:00,63.0,-99.9,29.94,NW,325,1.0,1.0,-999,-99.99,,,-99.99,,2013-11-13 03:54:00,
2013-11-12 20:14:00,63.0,-99.9,29.94,North,351,1.0,2.0,-999,-99.99,,,-99.99,,2013-11-13 04:14:00,
2013-11-12 20:23:00,63.0,-99.9,29.94,North,351,1.0,2.0,-999,-99.99,,,-99.99,,2013-11-13 04:23:00,
2013-11-12 20:34:00,63.0,-99.9,29.94,North,351,1.0,2.0,-999,-99.99,,,-99.99,,2013-11-13 04:34:00,
2013-11-12 20:53:00,62.0,-99.9,29.94,South,180,0.0,2.0,-999,-99.99,,,-99.99,,2013-11-13 04:53:00,
2013-11-12 21:00:00,61.0,-99.9,29.95,ENE,70,1.0,2.0,-999,-99.99,,,-99.99,,2013-11-13 05:00:00,
2013-11-12 21:03:00,62.0,-99.9,29.94,South,180,0.0,2.0,-999,-99.99,,,-99.99,,2013-11-13 05:03:00,
2013-11-12 21:23:00,61.0,-99.9,29.95,ENE,70,1.0,2.0,-999,-99.99,,,-99.99,,2013-11-13 05:23:00,
2013-11-12 21:34:00,61.0,-99.9,29.95,ENE,70,1.0,2.0,-999,-99.99,,,-99.99,,2013-11-13 05:34:00,
2013-11-12 21:43:00,61.0,-99.9,29.95,ENE,70,1.0,2.0,-999,-99.99,,,-99.99,,2013-11-13 05:43:00,
2013-11-12 21:54:00,61.0,-99.9,29.95,ENE,70,1.0,2.0,-999,-99.99,,,-99.99,,2013-11-13 05:54:00,
2013-11-12 22:23:00,60.0,-99.9,29.93,ENE,75,1.0,2.0,-999,-99.99,,,-99.99,,2013-11-13 06:23:00,
2013-11-12 22:52:00,59.0,-99.9,29.91,NNE,22,0.0,2.0,-999,-99.99,,,-99.99,,2013-11-13 06:52:00,
2013-11-12 23:22:00,59.0,-99.9,29.93,NE,42,0.0,2.0,-999,-99.99,,,-99.99,,2013-11-13 07:22:00,
2013-11-12 23:50:00,58.0,-99.9,29.91,ESE,122,1.0,1.0,-999,-99.99,,,-99.99,,2013-11-13 07:50:00,
2013-11-12 23:52:00,58.0,-99.9,29.94,NNW,338,0.0,1.0,-999,-99.99,,,-99.99,,2013-11-13 07:52:00,